Location: *
(33.8649°S, 62.1526°E)
Time: 12:56:22
(UTC+00:00)

CZ-2C R/B - Pass Details

Date: 17 January 2021
Orbit: 502 x 565 km, 97.7° (Epoch: 03 March)

Event Time Altitude Azimuth Distance (km) Brightness Sun altitude
Exits shadow 23:28:29 28° 277° (W) 1,087 3.8 -16.6°
Maximum altitude 23:28:29 28° 277° (W) 1,087 3.8 -16.6°
Drops below altitude 10° 23:32:01 10° 217° (SW) 1,880 5.6 -16.1°
Sets 23:34:24 0° 205° (SSW) 2,778 6.6 -15.7°
